User: anonymous   Login
Location: Monrovia
(34.7865°N, 86.7139°W)
Time: 00:41:20
(UTC+00:00)
Language:

ATLAS 3B R/B - Orbit

View from above orbital plane
View from above orbital plane
View from above satellite
View from above satellite

Ground track
Ground track

The orbit data is extracted from the following two-line orbital elements,

1 28538U 05004B   20266.74250886 0.00000000  00000-0  00000-0 0    04
2 28538  63.8311 168.2143 0108649  36.8608 323.1392 13.43134734    00
Epoch (UTC): 22 September 2020 17:49:12
Eccentricity: 0.0108649
inclination: 63.8311°
perigee height: 1016 km
apogee height: 1179 km
right ascension of ascending node: 168.2143°
argument of perigee: 36.8608°
revolutions per day: 13.43134734
mean anomaly at epoch: 323.1392°
orbit number at epoch: 0

The dashed part of the orbit path shows where the satellite is in the earth's shadow,  

DLR